Location: Middlebury
(44.0133°N, 73.1813°W)
Time: 10:52:33
(UTC-05:00)

ISS - Pass Details

Date: 07 December 2021
Orbit: 413 x 422 km, 51.6° (Epoch: 28 January)

Event Time Altitude Azimuth Distance (km) Brightness Sun altitude
Rises 17:15:44 0° 299° (WNW) 2,387 0.7 -10.7°
Reaches altitude 10° 17:17:51 10° 297° (WNW) 1,516 -0.3 -11.0°
Maximum altitude 17:21:13 62° 216° (SW) 479 -3.2 -11.6°
Drops below altitude 10° 17:24:34 10° 135° (SE) 1,501 -1.2 -12.2°
Enters shadow 17:26:01 - 132° (SE) 2,094 -0.5 -12.4°
